Regional Weather Roundup
Issued by NWS Midland/Odessa, TX

Skip options and go directly to product.
Home | Oldest Version | Previous Version | Current Version | All | Text Only | Save Text | Print | Product List | Glossary On

Skip product version selection by date and time.   
123
ASUS44 KMAF 221510
RWRMAF
MIDLAND AREA WEATHER ROUNDUP
NATIONAL WEATHER SERVICE MIDLAND TX
1000 AM CDT FRI AUG 22 2014

...IN SOUTHWEST TEXAS AND SOUTHEAST NEW MEXICO...

CITY           SKY/WX    TMP DP  RH WIND       PRES   REMARKS
ALPINE         SUNNY     77  59  53 S8        30.22S
ANDREWS        FAIR      80  60  51 S14G21    30.10S
ARTESIA        SUNNY     81  55  41 SW14      30.08S
BIG SPRING     SUNNY     82  60  48 S14       30.11S
CARLSBAD       MOSUNNY   81  58  45 W8        30.07R
DRYDEN           N/A     83  65  54 SE13      30.06R
FORT STOCKTON  SUNNY     79  61  53 SE12      30.09S
GUAD PASS      SUNNY     71  57  61 SW21      30.20R
HOBBS          SUNNY     79  59  50 SW7       30.12S
MARFA          MOSUNNY   75  61  60 S8        30.21S
MIDLAND AIRPK  SUNNY     81  60  47 S13       30.10R
MIDLAND INTL   SUNNY     81  61  50 S14       30.09R
ODESSA         SUNNY     78  62  57 S13       30.10S
PECOS          SUNNY     81  60  49 W5        30.06S
PRESIDIO       FAIR      77  66  68 CALM      30.07S
SEMINOLE       SUNNY     81  61  49 SW9       30.11S
SNYDER         SUNNY     80  65  60 S16       30.09S
WINK           SUNNY     82  63  52 SE9       30.06S
$$
...OTHER STATIONS IN TEXAS...

CITY           SKY/WX    TMP DP  RH WIND       PRES   REMARKS
ABILENE        SUNNY     84  64  50 S16G26    30.06F
AMARILLO       SUNNY     82  64  54 S18       30.06S
AUSTIN         MOSUNNY   86  71  60 S17G23    30.07R
BROWNSVILLE    SUNNY     88  74  63 S14       30.05S
CORPUS CHRISTI MOSUNNY   88  75  65 S15G21    30.05R
DALLAS FTW     SUNNY     86  72  62 S20G26    30.04S
DEL RIO        SUNNY     81  68  64 SE13G23   30.03R
EL PASO        CLOUDY    67  63  87 SE6       30.13R
HOUSTON INT    MOSUNNY   87  77  72 S6        30.09S
LUBBOCK        MOSUNNY   82  62  50 S18         N/A
SAN ANGELO     SUNNY     82  62  50 S16G22    30.07S
SAN ANTONIO    MOSUNNY   85  71  63 S10       30.08S
WACO           SUNNY     86  72  62 S15       30.07S
WICHITA FALLS  NOT AVBL
$$
...OTHER LOCATIONS IN NEW MEXICO...

CITY           SKY/WX    TMP DP  RH WIND       PRES   REMARKS
ALAMAGORDO     LGT RAIN  66  66 100 NE9       30.13F
ALBUQUERQUE    LGT RAIN  62  57  83 S5        30.26R
CANNON AFB     SUNNY     81  59  47 SW13      30.10F
CLOVIS           N/A     81  61  50 SW12      30.12F
HOLLOMAN AFB   PTSUNNY   66  66 100 N10       30.11F
ROSWELL        MOSUNNY   83  56  39 NW9       30.06S
RUIDOSO        PTSUNNY   59  55  88 NW9       30.30S
SANTA FE       LGT RAIN  61  52  72 S8        30.29R
TRUTH OR CONSE CLOUDY    64  62  93 E5        30.19F
TUCUMCARI      MOSUNNY   82  58  43 SW20      30.06R
$$

USA.gov is the U.S. government's official web portal to all federal, state and local government web resources and services.